When you browse on this site, cookies collect data to enhance your experience and personalize the content and advertising you see.
Visit our Privacy Policy to learn more. By continuing to use the site, you agree to this use of cookies and data.
  • In Portugal
  • List of Countries
  • For 7 days
  • Water Temperature
  • Weather Map
  • Weather Widgets
  • user-avatar
    Login

    Hourly Weather Podobin

    Today, 23 September, Monday

    Time Temperature Precipitation Wind Pressure Humidity
    00:00 +10°C° 0 mm 1 mps 719 mmHg 78%
    01:00 +10°C° 0 mm 1 mps 719 mmHg 77%
    02:00 +10°C° 0 mm 1 mps 719 mmHg 75%
    03:00 +11°C° 0 mm 1 mps 719 mmHg 73%
    04:00 +11°C° 0 mm 1 mps 719 mmHg 70%
    05:00 +12°C° 0 mm 1 mps 719 mmHg 70%
    06:00 +11°C° 0 mm 0 mps 719 mmHg 69%
    07:00 +12°C° 0 mm 0 mps 719 mmHg 69%
    08:00 +14°C° 0.1 mm 1 mps 719 mmHg 68%
    09:00 +15°C° 0.1 mm 1 mps 719 mmHg 66%
    10:00 +16°C° 0.1 mm 1 mps 719 mmHg 65%
    11:00 +16°C° 0.2 mm 1 mps 719 mmHg 65%
    12:00 +18°C° 0.2 mm 1 mps 719 mmHg 65%
    13:00 +19°C° 0.2 mm 1 mps 720 mmHg 65%
    14:00 +19°C° 0 mm 1 mps 719 mmHg 68%
    15:00 +18°C° 0 mm 1 mps 719 mmHg 71%
    16:00 +16°C° 0 mm 0 mps 719 mmHg 74%
    17:00 +15°C° 0 mm 0 mps 719 mmHg 80%
    18:00 +14°C° 0 mm 1 mps 719 mmHg 85%
    19:00 +12°C° 0 mm 1 mps 719 mmHg 91%
    20:00 +12°C° 0 mm 1 mps 719 mmHg 91%
    21:00 +11°C° 0 mm 0 mps 719 mmHg 92%
    22:00 +10°C° 0 mm 0 mps 719 mmHg 93%
    23:00 +10°C° 0 mm 0 mps 719 mmHg 93%

    Tomorrow, 24 September, Tuesday

    Time Temperature Precipitation Wind Pressure Humidity
    00:00 +10°C° 0 mm 0 mps 719 mmHg 93%
    01:00 +9°C° 0 mm 0 mps 719 mmHg 94%
    02:00 +9°C° 0 mm 0 mps 719 mmHg 94%
    03:00 +9°C° 0 mm 0 mps 719 mmHg 94%
    04:00 +9°C° 0 mm 0 mps 719 mmHg 94%
    05:00 +9°C° 0 mm 0 mps 719 mmHg 92%
    06:00 +10°C° 0 mm 0 mps 719 mmHg 89%
    07:00 +11°C° 0 mm 0 mps 719 mmHg 87%
    08:00 +14°C° 0 mm 1 mps 719 mmHg 77%
    09:00 +16°C° 0 mm 1 mps 719 mmHg 68%
    10:00 +19°C° 0 mm 1 mps 719 mmHg 58%
    11:00 +20°C° 0 mm 1 mps 719 mmHg 55%
    12:00 +20°C° 0 mm 2 mps 719 mmHg 52%
    13:00 +20°C° 0 mm 2 mps 719 mmHg 49%
    14:00 +20°C° 0 mm 2 mps 718 mmHg 53%
    15:00 +19°C° 0 mm 2 mps 718 mmHg 57%
    16:00 +19°C° 0 mm 2 mps 717 mmHg 62%
    17:00 +16°C° 0 mm 2 mps 717 mmHg 69%
    18:00 +14°C° 0 mm 1 mps 717 mmHg 77%
    19:00 +12°C° 0 mm 1 mps 717 mmHg 84%
    20:00 +12°C° 0 mm 1 mps 717 mmHg 85%
    21:00 +11°C° 0 mm 1 mps 717 mmHg 85%
    22:00 +11°C° 0 mm 1 mps 717 mmHg 86%
    23:00 +11°C° 0 mm 1 mps 717 mmHg 84%

    Day after tomorrow, 25 September, Wednesday

    Time Temperature Precipitation Wind Pressure Humidity
    00:00 +11°C° 0 mm 1 mps 717 mmHg 82%
    01:00 +11°C° 0 mm 1 mps 717 mmHg 79%
    02:00 +12°C° 0 mm 1 mps 717 mmHg 78%
    03:00 +12°C° 0 mm 1 mps 716 mmHg 77%
    04:00 +12°C° 0 mm 1 mps 716 mmHg 75%
    05:00 +12°C° 0 mm 1 mps 716 mmHg 75%
    06:00 +13°C° 0 mm 1 mps 716 mmHg 74%
    07:00 +14°C° 0 mm 1 mps 716 mmHg 73%
    08:00 +15°C° 0 mm 1 mps 716 mmHg 67%
    09:00 +18°C° 0 mm 1 mps 717 mmHg 62%
    10:00 +20°C° 0 mm 1 mps 717 mmHg 56%
    11:00 +20°C° 0.1 mm 1 mps 717 mmHg 57%
    12:00 +19°C° 0.1 mm 2 mps 717 mmHg 58%
    13:00 +20°C° 0.1 mm 2 mps 716 mmHg 59%
    14:00 +18°C° 0.5 mm 2 mps 716 mmHg 68%
    15:00 +17°C° 0.5 mm 2 mps 716 mmHg 77%
    16:00 +15°C° 0.5 mm 1 mps 715 mmHg 86%
    17:00 +14°C° 0 mm 1 mps 716 mmHg 88%
    18:00 +14°C° 0 mm 1 mps 716 mmHg 90%
    19:00 +13°C° 0 mm 1 mps 716 mmHg 92%
    20:00 +13°C° 0 mm 1 mps 716 mmHg 92%
    21:00 +12°C° 0 mm 2 mps 716 mmHg 92%
    22:00 +12°C° 0 mm 2 mps 716 mmHg 92%
    23:00 +12°C° 0 mm 2 mps 716 mmHg 92%

    26 September, Thursday

    Time Temperature Precipitation Wind Pressure Humidity
    00:00 +12°C° 0 mm 2 mps 716 mmHg 92%
    01:00 +12°C° 0 mm 2 mps 717 mmHg 92%
    02:00 +12°C° 0 mm 2 mps 717 mmHg 91%
    03:00 +12°C° 0 mm 2 mps 717 mmHg 91%
    04:00 +12°C° 0 mm 2 mps 717 mmHg 91%
    05:00 +12°C° 0 mm 2 mps 717 mmHg 90%
    06:00 +12°C° 0 mm 2 mps 717 mmHg 90%
    07:00 +12°C° 0 mm 2 mps 717 mmHg 89%
    08:00 +14°C° 0 mm 2 mps 718 mmHg 83%
    09:00 +15°C° 0 mm 2 mps 718 mmHg 77%
    10:00 +16°C° 0 mm 3 mps 719 mmHg 71%
    11:00 +16°C° 0.2 mm 3 mps 719 mmHg 70%
    12:00 +17°C° 0.2 mm 3 mps 719 mmHg 69%
    13:00 +17°C° 0.2 mm 3 mps 719 mmHg 67%
    14:00 +17°C° 0.3 mm 2 mps 718 mmHg 70%
    15:00 +16°C° 0.3 mm 2 mps 718 mmHg 74%
    16:00 +16°C° 0.3 mm 2 mps 718 mmHg 77%
    17:00 +14°C° 0 mm 1 mps 718 mmHg 81%
    18:00 +13°C° 0 mm 1 mps 719 mmHg 86%
    19:00 +11°C° 0 mm 1 mps 719 mmHg 90%
    20:00 +11°C° 0 mm 1 mps 719 mmHg 91%
    21:00 +11°C° 0 mm 1 mps 719 mmHg 91%
    22:00 +11°C° 0 mm 1 mps 720 mmHg 92%
    23:00 +10°C° 0 mm 1 mps 720 mmHg 92%

    27 September, Friday

    Time Temperature Precipitation Wind Pressure Humidity
    00:00 +10°C° 0 mm 1 mps 720 mmHg 92%
    01:00 +10°C° 0 mm 1 mps 720 mmHg 92%
    02:00 +10°C° 0 mm 1 mps 720 mmHg 92%
    03:00 +10°C° 0 mm 1 mps 720 mmHg 93%
    04:00 +10°C° 0 mm 1 mps 720 mmHg 93%
    05:00 +10°C° 0 mm 1 mps 720 mmHg 91%
    06:00 +11°C° 0 mm 1 mps 720 mmHg 89%
    07:00 +12°C° 0 mm 1 mps 720 mmHg 88%
    08:00 +14°C° 0 mm 1 mps 721 mmHg 81%
    09:00 +16°C° 0 mm 1 mps 721 mmHg 74%
    10:00 +19°C° 0 mm 1 mps 722 mmHg 67%
    11:00 +19°C° 0 mm 2 mps 721 mmHg 64%
    12:00 +20°C° 0 mm 2 mps 721 mmHg 62%
    13:00 +21°C° 0 mm 2 mps 721 mmHg 59%
    14:00 +20°C° 0.1 mm 2 mps 721 mmHg 64%
    15:00 +20°C° 0.1 mm 1 mps 721 mmHg 70%
    16:00 +20°C° 0.1 mm 1 mps 720 mmHg 75%
    17:00 +18°C° 0 mm 1 mps 720 mmHg 80%
    18:00 +16°C° 0 mm 1 mps 720 mmHg 85%
    19:00 +14°C° 0 mm 1 mps 720 mmHg 89%
    20:00 +14°C° 0 mm 1 mps 720 mmHg 90%
    21:00 +14°C° 0 mm 1 mps 720 mmHg 90%
    22:00 +13°C° 0 mm 1 mps 720 mmHg 90%
    23:00 +13°C° 0 mm 2 mps 720 mmHg 90%

    28 September, Saturday

    Time Temperature Precipitation Wind Pressure Humidity
    00:00 +13°C° 0 mm 2 mps 720 mmHg 90%
    01:00 +13°C° 0 mm 2 mps 720 mmHg 90%
    02:00 +13°C° 0 mm 2 mps 720 mmHg 90%
    03:00 +12°C° 0 mm 1 mps 720 mmHg 90%
    04:00 +12°C° 0 mm 1 mps 720 mmHg 90%
    05:00 +13°C° 0 mm 1 mps 720 mmHg 88%
    06:00 +13°C° 0 mm 1 mps 720 mmHg 85%
    07:00 +14°C° 0 mm 1 mps 720 mmHg 83%
    08:00 +16°C° 0 mm 1 mps 720 mmHg 77%
    09:00 +17°C° 0 mm 2 mps 720 mmHg 71%
    10:00 +19°C° 0 mm 2 mps 720 mmHg 65%
    11:00 +18°C° 0.3 mm 2 mps 720 mmHg 72%
    12:00 +17°C° 0.3 mm 2 mps 720 mmHg 79%
    13:00 +16°C° 0.3 mm 2 mps 719 mmHg 86%
    14:00 +15°C° 0.4 mm 2 mps 719 mmHg 89%
    15:00 +15°C° 0.4 mm 1 mps 719 mmHg 92%
    16:00 +14°C° 0.4 mm 1 mps 718 mmHg 94%
    17:00 +14°C° 0 mm 1 mps 718 mmHg 94%
    18:00 +13°C° 0 mm 1 mps 718 mmHg 94%
    19:00 +13°C° 0 mm 2 mps 718 mmHg 94%
    20:00 +13°C° 0 mm 2 mps 718 mmHg 94%
    21:00 +12°C° 0 mm 2 mps 718 mmHg 93%
    22:00 +12°C° 0 mm 2 mps 719 mmHg 93%
    23:00 +12°C° 0 mm 2 mps 719 mmHg 93%
    Show more